When you browse on this site, cookies collect data to enhance your experience and personalize the content and advertising you see.
Visit our Privacy Policy to learn more. By continuing to use the site, you agree to this use of cookies and data.
  • Em Portugal
  • Lista de países
  • Para 7 dias
  • Temperatura da água
  • Mapas de satélite
  • Mapa do tempo
  • Widgets de tempo
  • user-avatar
    Iniciar Sessão

    Previsão horária em Salzburgo

    Hoje, 22 Maio, Quarta-feira

    Tempo Temperatura Precipitação Vento Pressão Humidade
    00:00 +3°C° 1.4 mm 1 m/s 623 mmHg 96%
    01:00 +3°C° 1.4 mm 1 m/s 623 mmHg 96%
    02:00 +3°C° 1.6 mm 1 m/s 623 mmHg 96%
    03:00 +3°C° 1.6 mm 1 m/s 623 mmHg 97%
    04:00 +3°C° 1.6 mm 1 m/s 623 mmHg 97%
    05:00 +3°C° 0.8 mm 1 m/s 623 mmHg 96%
    06:00 +4°C° 0.8 mm 1 m/s 624 mmHg 96%
    07:00 +4°C° 0.8 mm 1 m/s 624 mmHg 96%
    08:00 +5°C° 0.6 mm 1 m/s 624 mmHg 95%
    09:00 +5°C° 0.6 mm 1 m/s 624 mmHg 94%
    10:00 +6°C° 0.6 mm 1 m/s 625 mmHg 93%
    11:00 +6°C° 0.3 mm 1 m/s 625 mmHg 91%
    12:00 +7°C° 0.3 mm 1 m/s 625 mmHg 89%
    13:00 +6°C° 0.3 mm 2 m/s 625 mmHg 86%
    14:00 +7°C° 0.2 mm 2 m/s 626 mmHg 85%
    15:00 +8°C° 0.2 mm 1 m/s 626 mmHg 83%
    16:00 +9°C° 0.2 mm 1 m/s 626 mmHg 81%
    17:00 +8°C° 0.4 mm 1 m/s 626 mmHg 86%
    18:00 +7°C° 0.4 mm 1 m/s 626 mmHg 90%
    19:00 +6°C° 0.4 mm 1 m/s 626 mmHg 94%
    20:00 +5°C° 0.4 mm 1 m/s 626 mmHg 95%
    21:00 +5°C° 0.4 mm 1 m/s 626 mmHg 96%
    22:00 +5°C° 0.4 mm 1 m/s 626 mmHg 97%
    23:00 +4°C° 0.2 mm 1 m/s 626 mmHg 98%

    Amanhã, 23 Maio, Quinta-feira

    Tempo Temperatura Precipitação Vento Pressão Humidade
    00:00 +4°C° 0.2 mm 1 m/s 626 mmHg 98%
    01:00 +3°C° 0.2 mm 1 m/s 626 mmHg 98%
    02:00 +3°C° 0.1 mm 1 m/s 626 mmHg 98%
    03:00 +2°C° 0.1 mm 0 m/s 626 mmHg 98%
    04:00 +2°C° 0.1 mm 0 m/s 627 mmHg 98%
    05:00 +3°C° 0.1 mm 0 m/s 627 mmHg 96%
    06:00 +4°C° 0.1 mm 1 m/s 627 mmHg 94%
    07:00 +5°C° 0.1 mm 1 m/s 627 mmHg 93%
    08:00 +6°C° 0.1 mm 1 m/s 627 mmHg 85%
    09:00 +8°C° 0.1 mm 1 m/s 628 mmHg 78%
    10:00 +9°C° 0.1 mm 1 m/s 628 mmHg 71%
    11:00 +10°C° 0 mm 1 m/s 628 mmHg 65%
    12:00 +11°C° 0 mm 1 m/s 628 mmHg 58%
    13:00 +12°C° 0 mm 2 m/s 629 mmHg 51%
    14:00 +12°C° 0 mm 2 m/s 628 mmHg 51%
    15:00 +12°C° 0 mm 2 m/s 628 mmHg 51%
    16:00 +12°C° 0 mm 2 m/s 628 mmHg 51%
    17:00 +10°C° 0 mm 2 m/s 627 mmHg 61%
    18:00 +9°C° 0 mm 1 m/s 627 mmHg 71%
    19:00 +7°C° 0 mm 1 m/s 626 mmHg 81%
    20:00 +6°C° 0 mm 1 m/s 626 mmHg 85%
    21:00 +4°C° 0 mm 1 m/s 626 mmHg 90%
    22:00 +3°C° 0 mm 1 m/s 626 mmHg 94%
    23:00 +3°C° 0 mm 1 m/s 626 mmHg 93%

    Depois de amanhã, 24 Maio, Sexta-feira

    Tempo Temperatura Precipitação Vento Pressão Humidade
    00:00 +2°C° 0 mm 1 m/s 626 mmHg 92%
    01:00 +2°C° 0 mm 1 m/s 626 mmHg 92%
    02:00 +2°C° 0 mm 1 m/s 625 mmHg 89%
    03:00 +2°C° 0 mm 1 m/s 625 mmHg 86%
    04:00 +2°C° 0 mm 1 m/s 625 mmHg 83%
    05:00 +4°C° 0 mm 1 m/s 626 mmHg 74%
    06:00 +5°C° 0 mm 0 m/s 626 mmHg 66%
    07:00 +8°C° 0 mm 0 m/s 627 mmHg 57%
    08:00 +9°C° 0 mm 0 m/s 627 mmHg 52%
    09:00 +12°C° 0 mm 1 m/s 628 mmHg 47%
    10:00 +14°C° 0 mm 1 m/s 628 mmHg 43%
    11:00 +14°C° 0 mm 1 m/s 628 mmHg 41%
    12:00 +15°C° 0 mm 2 m/s 628 mmHg 40%
    13:00 +16°C° 0 mm 2 m/s 628 mmHg 39%
    14:00 +16°C° 0 mm 2 m/s 628 mmHg 42%
    15:00 +15°C° 0 mm 2 m/s 628 mmHg 45%
    16:00 +15°C° 0 mm 2 m/s 627 mmHg 47%
    17:00 +13°C° 0 mm 2 m/s 627 mmHg 58%
    18:00 +11°C° 0 mm 1 m/s 626 mmHg 68%
    19:00 +10°C° 0 mm 1 m/s 625 mmHg 79%
    20:00 +8°C° 0 mm 1 m/s 625 mmHg 84%
    21:00 +7°C° 0 mm 1 m/s 625 mmHg 88%
    22:00 +5°C° 0 mm 1 m/s 625 mmHg 93%
    23:00 +5°C° 0 mm 1 m/s 624 mmHg 93%

    25 Maio, Sábado

    Tempo Temperatura Precipitação Vento Pressão Humidade
    00:00 +5°C° 0 mm 1 m/s 624 mmHg 93%
    01:00 +5°C° 0 mm 1 m/s 624 mmHg 93%
    02:00 +4°C° 0 mm 1 m/s 624 mmHg 93%
    03:00 +4°C° 0 mm 1 m/s 624 mmHg 92%
    04:00 +4°C° 0 mm 1 m/s 624 mmHg 92%
    05:00 +6°C° 0 mm 1 m/s 625 mmHg 85%
    06:00 +7°C° 0 mm 0 m/s 626 mmHg 77%
    07:00 +9°C° 0 mm 0 m/s 626 mmHg 69%
    08:00 +11°C° 0 mm 0 m/s 627 mmHg 64%
    09:00 +12°C° 0 mm 0 m/s 628 mmHg 59%
    10:00 +15°C° 0 mm 1 m/s 628 mmHg 53%
    11:00 +15°C° 0.3 mm 1 m/s 628 mmHg 56%
    12:00 +15°C° 0.3 mm 1 m/s 628 mmHg 59%
    13:00 +15°C° 0.3 mm 1 m/s 628 mmHg 62%
    14:00 +14°C° 0.7 mm 1 m/s 627 mmHg 68%
    15:00 +13°C° 0.7 mm 1 m/s 627 mmHg 75%
    16:00 +12°C° 0.7 mm 1 m/s 626 mmHg 82%
    17:00 +11°C° 1.2 mm 1 m/s 626 mmHg 86%
    18:00 +10°C° 1.2 mm 1 m/s 626 mmHg 90%
    19:00 +8°C° 1.2 mm 1 m/s 625 mmHg 95%
    20:00 +8°C° 0.4 mm 1 m/s 625 mmHg 95%
    21:00 +7°C° 0.4 mm 1 m/s 626 mmHg 95%
    22:00 +6°C° 0.4 mm 1 m/s 626 mmHg 95%
    23:00 +6°C° 0 mm 1 m/s 625 mmHg 95%

    26 Maio, Domingo

    Tempo Temperatura Precipitação Vento Pressão Humidade
    00:00 +5°C° 0 mm 1 m/s 625 mmHg 94%
    01:00 +4°C° 0 mm 1 m/s 625 mmHg 94%
    02:00 +4°C° 0 mm 1 m/s 625 mmHg 94%
    03:00 +4°C° 0 mm 1 m/s 625 mmHg 94%
    04:00 +4°C° 0 mm 1 m/s 625 mmHg 94%
    05:00 +6°C° 0 mm 1 m/s 625 mmHg 93%
    06:00 +7°C° 0 mm 1 m/s 626 mmHg 92%
    07:00 +8°C° 0 mm 1 m/s 626 mmHg 91%
    08:00 +10°C° 0.1 mm 1 m/s 627 mmHg 83%
    09:00 +11°C° 0.1 mm 1 m/s 628 mmHg 75%
    10:00 +13°C° 0.1 mm 1 m/s 628 mmHg 66%
    11:00 +14°C° 0.1 mm 1 m/s 628 mmHg 62%
    12:00 +14°C° 0.1 mm 2 m/s 628 mmHg 57%
    13:00 +15°C° 0.1 mm 2 m/s 628 mmHg 52%
    14:00 +15°C° 0.1 mm 2 m/s 628 mmHg 55%
    15:00 +15°C° 0.1 mm 2 m/s 628 mmHg 57%
    16:00 +14°C° 0.1 mm 2 m/s 627 mmHg 59%
    17:00 +13°C° 0.1 mm 2 m/s 627 mmHg 68%
    18:00 +12°C° 0.1 mm 1 m/s 627 mmHg 77%
    19:00 +10°C° 0.1 mm 1 m/s 626 mmHg 87%
    20:00 +9°C° 0 mm 1 m/s 626 mmHg 89%
    21:00 +7°C° 0 mm 1 m/s 626 mmHg 92%
    22:00 +6°C° 0 mm 1 m/s 626 mmHg 95%
    23:00 +6°C° 0 mm 1 m/s 626 mmHg 95%

    27 Maio, Segunda-feira

    Tempo Temperatura Precipitação Vento Pressão Humidade
    00:00 +6°C° 0 mm 1 m/s 625 mmHg 94%
    01:00 +5°C° 0 mm 1 m/s 625 mmHg 94%
    02:00 +5°C° 0 mm 1 m/s 625 mmHg 93%
    03:00 +5°C° 0 mm 1 m/s 625 mmHg 93%
    04:00 +5°C° 0 mm 1 m/s 625 mmHg 92%
    05:00 +7°C° 0 mm 1 m/s 625 mmHg 86%
    06:00 +9°C° 0 mm 1 m/s 626 mmHg 81%
    07:00 +10°C° 0 mm 0 m/s 627 mmHg 75%
    08:00 +13°C° 0.2 mm 1 m/s 627 mmHg 71%
    09:00 +14°C° 0.2 mm 1 m/s 627 mmHg 68%
    10:00 +16°C° 0.2 mm 1 m/s 628 mmHg 64%
    11:00 +15°C° 0.9 mm 1 m/s 627 mmHg 68%
    12:00 +15°C° 0.9 mm 1 m/s 627 mmHg 72%
    13:00 +15°C° 0.9 mm 1 m/s 627 mmHg 76%
    14:00 +15°C° 1.1 mm 1 m/s 626 mmHg 78%
    15:00 +14°C° 1.1 mm 1 m/s 626 mmHg 81%
    16:00 +14°C° 1.1 mm 1 m/s 626 mmHg 83%
    17:00 +13°C° 0.9 mm 1 m/s 625 mmHg 87%
    18:00 +12°C° 0.9 mm 1 m/s 625 mmHg 90%
    19:00 +10°C° 0.9 mm 0 m/s 625 mmHg 93%
    20:00 +11°C° 0.6 mm 1 m/s 625 mmHg 94%
    21:00 +10°C° 0.6 mm 1 m/s 625 mmHg 95%
    22:00 +9°C° 0.6 mm 1 m/s 624 mmHg 96%
    23:00 +9°C° 0.3 mm 1 m/s 624 mmHg 96%
    Mostrar mais